Time,TemperatureF,DewpointF,PressureIn,WindDirection,WindDirectionDegrees,WindSpeedMPH,WindSpeedGustMPH,Humidity,HourlyPrecipIn,Conditions,Clouds,dailyrainin,SoftwareType,DateUTC
2013-11-26 00:00:00,29.0,25.0,30.23,WSW,252,3.0,7.0,83,0.00,,,0.00,weatherlink.com 1.10,2013-11-26 05:00:00,
2013-11-26 00:15:00,29.1,25.0,30.23,SW,236,2.0,3.0,83,0.00,,,0.00,weatherlink.com 1.10,2013-11-26 05:15:00,
2013-11-26 00:30:00,29.0,25.0,30.22,SSW,205,0.0,5.0,83,0.00,,,0.00,weatherlink.com 1.10,2013-11-26 05:30:00,
2013-11-26 00:46:00,29.0,25.0,30.21,WSW,251,0.0,5.0,83,0.00,,,0.00,weatherlink.com 1.10,2013-11-26 05:46:00,
2013-11-26 01:01:00,29.0,25.0,30.22,ESE,105,2.0,7.0,83,0.00,,,0.00,weatherlink.com 1.10,2013-11-26 06:01:00,
2013-11-26 01:16:00,29.0,25.0,30.21,WSW,247,0.0,6.0,83,0.00,,,0.00,weatherlink.com 1.10,2013-11-26 06:16:00,
2013-11-26 01:31:00,29.0,25.0,30.21,WSW,248,0.0,4.0,83,0.00,,,0.00,weatherlink.com 1.10,2013-11-26 06:31:00,
2013-11-26 01:46:00,29.0,24.0,30.22,West,278,0.0,5.0,82,0.00,,,0.00,weatherlink.com 1.10,2013-11-26 06:46:00,
2013-11-26 02:01:00,29.1,24.0,30.22,North,4,0.0,2.0,82,0.00,,,0.00,weatherlink.com 1.10,2013-11-26 07:01:00,
2013-11-26 02:16:00,29.1,24.0,30.22,SW,230,1.0,5.0,82,0.00,,,0.00,weatherlink.com 1.10,2013-11-26 07:16:00,
2013-11-26 02:31:00,29.1,24.0,30.22,SW,226,0.0,3.0,82,0.00,,,0.00,weatherlink.com 1.10,2013-11-26 07:31:00,
2013-11-26 02:46:00,29.1,24.0,30.22,West,266,1.0,5.0,81,0.00,,,0.00,weatherlink.com 1.10,2013-11-26 07:46:00,
2013-11-26 03:01:00,29.3,24.0,30.22,SSE,160,0.0,6.0,81,0.00,,,0.00,weatherlink.com 1.10,2013-11-26 08:01:00,
2013-11-26 03:16:00,29.3,24.0,30.23,West,271,1.0,4.0,81,0.00,,,0.00,weatherlink.com 1.10,2013-11-26 08:16:00,
2013-11-26 03:31:00,29.3,24.0,30.22,SSW,200,1.0,5.0,81,0.00,,,0.00,weatherlink.com 1.10,2013-11-26 08:31:00,
2013-11-26 03:46:00,29.3,24.0,30.22,WSW,255,2.0,5.0,81,0.00,,,0.00,weatherlink.com 1.10,2013-11-26 08:46:00,
2013-11-26 04:01:00,29.3,24.0,30.21,West,261,3.0,5.0,80,0.00,,,0.00,weatherlink.com 1.10,2013-11-26 09:01:00,
2013-11-26 04:16:00,29.3,24.0,30.21,SSW,203,0.0,5.0,80,0.00,,,0.00,weatherlink.com 1.10,2013-11-26 09:16:00,
2013-11-26 04:31:00,29.1,24.0,30.21,WSW,255,0.0,6.0,80,0.00,,,0.00,weatherlink.com 1.10,2013-11-26 09:31:00,
2013-11-26 04:46:00,29.1,24.0,30.22,SE,139,0.0,6.0,80,0.00,,,0.00,weatherlink.com 1.10,2013-11-26 09:46:00,
2013-11-26 05:01:00,29.1,24.0,30.20,SSW,205,0.0,4.0,80,0.00,,,0.00,weatherlink.com 1.10,2013-11-26 10:01:00,
2013-11-26 05:16:00,29.0,23.0,30.21,WSW,245,0.0,5.0,79,0.00,,,0.00,weatherlink.com 1.10,2013-11-26 10:16:00,
2013-11-26 05:31:00,29.0,24.0,30.21,South,169,0.0,3.0,80,0.00,,,0.00,weatherlink.com 1.10,2013-11-26 10:31:00,
2013-11-26 05:46:00,29.0,23.0,30.20,SW,232,0.0,5.0,79,0.00,,,0.00,weatherlink.com 1.10,2013-11-26 10:46:00,
2013-11-26 06:01:00,29.0,23.0,30.19,WNW,282,0.0,3.0,79,0.00,,,0.00,weatherlink.com 1.10,2013-11-26 11:01:00,
2013-11-26 06:16:00,29.0,23.0,30.19,West,260,0.0,3.0,78,0.00,,,0.00,weatherlink.com 1.10,2013-11-26 11:16:00,
2013-11-26 06:31:00,28.8,23.0,30.18,WSW,250,0.0,9.0,78,0.00,,,0.00,weatherlink.com 1.10,2013-11-26 11:31:00,
2013-11-26 06:46:00,28.7,23.0,30.18,West,271,0.0,9.0,78,0.00,,,0.00,weatherlink.com 1.10,2013-11-26 11:46:00,
2013-11-26 07:01:00,28.7,23.0,30.19,SW,234,0.0,3.0,78,0.00,,,0.00,weatherlink.com 1.10,2013-11-26 12:01:00,
2013-11-26 07:16:00,28.7,23.0,30.17,SW,233,0.0,3.0,78,0.00,,,0.00,weatherlink.com 1.10,2013-11-26 12:16:00,
2013-11-26 07:31:00,28.7,23.0,30.17,WSW,250,0.0,4.0,78,0.00,,,0.00,weatherlink.com 1.10,2013-11-26 12:31:00,
2013-11-26 07:46:00,28.7,23.0,30.17,West,274,2.0,4.0,78,0.00,,,0.00,weatherlink.com 1.10,2013-11-26 12:46:00,
2013-11-26 08:01:00,28.7,23.0,30.18,South,172,0.0,2.0,78,0.00,,,0.00,weatherlink.com 1.10,2013-11-26 13:01:00,
2013-11-26 08:16:00,28.5,23.0,30.18,SW,214,0.0,3.0,79,0.00,,,0.00,weatherlink.com 1.10,2013-11-26 13:16:00,
2013-11-26 08:31:00,28.4,23.0,30.17,West,271,0.0,3.0,79,0.00,,,0.00,weatherlink.com 1.10,2013-11-26 13:31:00,
2013-11-26 08:46:00,28.4,23.0,30.17,SW,236,0.0,2.0,80,0.00,,,0.00,weatherlink.com 1.10,2013-11-26 13:46:00,
2013-11-26 09:02:00,28.7,23.0,30.17,West,259,0.0,1.0,79,0.00,,,0.00,weatherlink.com 1.10,2013-11-26 14:02:00,
2013-11-26 09:16:00,29.1,23.0,30.18,West,259,0.0,1.0,79,0.00,,,0.00,weatherlink.com 1.10,2013-11-26 14:16:00,
2013-11-26 09:31:00,29.5,23.0,30.18,SW,228,0.0,2.0,78,0.00,,,0.00,weatherlink.com 1.10,2013-11-26 14:31:00,
2013-11-26 09:46:00,30.0,24.0,30.17,SW,228,0.0,2.0,77,0.00,,,0.00,weatherlink.com 1.10,2013-11-26 14:46:00,
2013-11-26 10:01:00,30.0,23.0,30.16,SSE,165,2.0,3.0,76,0.00,,,0.00,weatherlink.com 1.10,2013-11-26 15:01:00,
2013-11-26 10:16:00,30.1,23.0,30.16,SW,231,0.0,4.0,76,0.00,,,0.00,weatherlink.com 1.10,2013-11-26 15:16:00,
2013-11-26 10:32:00,30.7,24.0,30.16,West,281,1.0,4.0,75,0.00,,,0.00,weatherlink.com 1.10,2013-11-26 15:32:00,
2013-11-26 10:46:00,31.2,24.0,30.16,SW,233,0.0,5.0,75,0.00,,,0.00,weatherlink.com 1.10,2013-11-26 15:46:00,
2013-11-26 11:01:00,31.6,24.0,30.17,SW,231,0.0,2.0,74,0.00,,,0.00,weatherlink.com 1.10,2013-11-26 16:01:00,
2013-11-26 11:16:00,31.8,24.0,30.16,WSW,240,1.0,3.0,74,0.00,,,0.00,weatherlink.com 1.10,2013-11-26 16:16:00,
2013-11-26 11:32:00,31.9,25.0,30.16,WSW,240,0.0,2.0,74,0.00,,,0.00,weatherlink.com 1.10,2013-11-26 16:32:00,
2013-11-26 11:47:00,31.9,25.0,30.16,WSW,241,0.0,3.0,74,0.00,,,0.00,weatherlink.com 1.10,2013-11-26 16:47:00,
2013-11-26 12:02:00,32.1,24.0,30.16,WSW,245,2.0,4.0,73,0.00,,,0.00,weatherlink.com 1.10,2013-11-26 17:02:00,
2013-11-26 12:17:00,32.1,25.0,30.15,WSW,246,0.0,4.0,74,0.00,,,0.00,weatherlink.com 1.10,2013-11-26 17:17:00,
2013-11-26 12:32:00,31.9,25.0,30.14,WSW,250,2.0,4.0,74,0.00,,,0.00,weatherlink.com 1.10,2013-11-26 17:32:00,
2013-11-26 12:47:00,31.9,25.0,30.13,West,269,0.0,4.0,75,0.00,,,0.00,weatherlink.com 1.10,2013-11-26 17:47:00,
2013-11-26 13:02:00,32.1,25.0,30.13,West,263,3.0,3.0,75,0.00,,,0.00,weatherlink.com 1.10,2013-11-26 18:02:00,
2013-11-26 13:17:00,32.2,25.0,30.12,South,174,0.0,2.0,75,0.00,,,0.00,weatherlink.com 1.10,2013-11-26 18:17:00,
2013-11-26 13:32:00,32.2,25.0,30.12,WSW,240,0.0,4.0,75,0.00,,,0.00,weatherlink.com 1.10,2013-11-26 18:32:00,
2013-11-26 13:47:00,32.4,25.0,30.11,WSW,251,0.0,2.0,75,0.00,,,0.00,weatherlink.com 1.10,2013-11-26 18:47:00,
2013-11-26 14:02:00,32.7,26.0,30.11,WSW,251,0.0,3.0,75,0.00,,,0.00,weatherlink.com 1.10,2013-11-26 19:02:00,
2013-11-26 14:17:00,32.8,26.0,30.09,SSW,199,2.0,3.0,75,0.00,,,0.00,weatherlink.com 1.10,2013-11-26 19:17:00,
2013-11-26 14:32:00,32.8,26.0,30.10,SW,222,0.0,3.0,75,0.01,,,0.01,weatherlink.com 1.10,2013-11-26 19:32:00,
2013-11-26 14:47:00,32.8,26.0,30.10,SSW,199,0.0,4.0,76,0.01,,,0.01,weatherlink.com 1.10,2013-11-26 19:47:00,
2013-11-26 15:02:00,32.8,26.0,30.09,SW,224,0.0,3.0,76,0.01,,,0.01,weatherlink.com 1.10,2013-11-26 20:02:00,
2013-11-26 15:17:00,32.7,26.0,30.08,SW,224,0.0,2.0,77,0.00,,,0.01,weatherlink.com 1.10,2013-11-26 20:17:00,
2013-11-26 15:32:00,32.4,26.0,30.08,SW,225,0.0,3.0,77,0.00,,,0.01,weatherlink.com 1.10,2013-11-26 20:32:00,
2013-11-26 16:02:00,32.1,26.0,30.09,SSW,198,0.0,4.0,79,0.00,,,0.01,weatherlink.com 1.10,2013-11-26 21:02:00,
2013-11-26 16:17:00,32.1,26.0,30.09,WSW,249,0.0,2.0,79,0.00,,,0.01,weatherlink.com 1.10,2013-11-26 21:17:00,
2013-11-26 16:32:00,32.2,27.0,30.08,WNW,303,0.0,3.0,80,0.00,,,0.01,weatherlink.com 1.10,2013-11-26 21:32:00,
2013-11-26 16:47:00,32.2,27.0,30.08,West,266,1.0,4.0,80,0.00,,,0.01,weatherlink.com 1.10,2013-11-26 21:47:00,
2013-11-26 17:02:00,32.4,27.0,30.08,WSW,250,0.0,3.0,80,0.00,,,0.01,weatherlink.com 1.10,2013-11-26 22:02:00,
2013-11-26 17:17:00,32.7,27.0,30.08,West,281,3.0,5.0,79,0.00,,,0.01,weatherlink.com 1.10,2013-11-26 22:17:00,
2013-11-26 17:32:00,32.8,25.0,30.09,SW,217,4.0,7.0,73,0.00,,,0.01,weatherlink.com 1.10,2013-11-26 22:32:00,
2013-11-26 17:47:00,32.7,24.0,30.09,WNW,291,2.0,6.0,70,0.00,,,0.01,weatherlink.com 1.10,2013-11-26 22:47:00,
2013-11-26 18:02:00,32.2,23.0,30.11,NNE,14,3.0,8.0,69,0.00,,,0.01,weatherlink.com 1.10,2013-11-26 23:02:00,
2013-11-26 18:17:00,31.6,23.0,30.11,East,89,1.0,8.0,71,0.00,,,0.01,weatherlink.com 1.10,2013-11-26 23:17:00,
2013-11-26 18:32:00,31.0,23.0,30.12,East,96,1.0,9.0,73,0.00,,,0.01,weatherlink.com 1.10,2013-11-26 23:32:00,
2013-11-26 18:47:00,30.6,23.0,30.12,WSW,243,0.0,6.0,74,0.00,,,0.01,weatherlink.com 1.10,2013-11-26 23:47:00,
2013-11-26 19:02:00,30.4,23.0,30.13,SW,224,2.0,4.0,74,0.00,,,0.01,weatherlink.com 1.10,2013-11-27 00:02:00,
2013-11-26 19:17:00,30.1,23.0,30.13,East,98,0.0,4.0,75,0.00,,,0.01,weatherlink.com 1.10,2013-11-27 00:17:00,
2013-11-26 19:32:00,30.0,23.0,30.13,WSW,240,0.0,4.0,75,0.00,,,0.01,weatherlink.com 1.10,2013-11-27 00:32:00,
2013-11-26 19:47:00,29.8,23.0,30.13,SSW,204,0.0,5.0,75,0.00,,,0.01,weatherlink.com 1.10,2013-11-27 00:47:00,
2013-11-26 20:02:00,29.8,22.0,30.14,WSW,254,0.0,4.0,73,0.00,,,0.01,weatherlink.com 1.10,2013-11-27 01:02:00,
2013-11-26 20:17:00,30.1,21.0,30.14,WSW,255,0.0,4.0,70,0.00,,,0.01,weatherlink.com 1.10,2013-11-27 01:17:00,
2013-11-26 20:32:00,30.1,21.0,30.14,West,276,1.0,6.0,68,0.00,,,0.01,weatherlink.com 1.10,2013-11-27 01:32:00,
2013-11-26 20:47:00,30.3,20.0,30.13,South,187,1.0,2.0,66,0.00,,,0.01,weatherlink.com 1.10,2013-11-27 01:47:00,
2013-11-26 21:02:00,30.3,19.0,30.14,WSW,243,2.0,3.0,63,0.00,,,0.01,weatherlink.com 1.10,2013-11-27 02:02:00,
2013-11-26 21:17:00,30.4,19.0,30.13,North,6,0.0,3.0,62,0.00,,,0.01,weatherlink.com 1.10,2013-11-27 02:17:00,
2013-11-26 21:32:00,30.4,18.0,30.14,ENE,65,0.0,3.0,61,0.00,,,0.01,weatherlink.com 1.10,2013-11-27 02:32:00,
2013-11-26 21:47:00,30.6,18.0,30.14,North,359,0.0,4.0,59,0.00,,,0.01,weatherlink.com 1.10,2013-11-27 02:47:00,
2013-11-26 22:02:00,30.4,17.0,30.14,WSW,255,1.0,3.0,58,0.00,,,0.01,weatherlink.com 1.10,2013-11-27 03:02:00,
2013-11-26 22:18:00,30.4,16.0,30.13,SW,214,0.0,4.0,56,0.00,,,0.01,weatherlink.com 1.10,2013-11-27 03:18:00,
2013-11-26 22:33:00,30.4,16.0,30.13,NNE,14,0.0,4.0,56,0.00,,,0.01,weatherlink.com 1.10,2013-11-27 03:33:00,
2013-11-26 22:48:00,30.3,19.0,30.14,NE,34,3.0,3.0,62,0.00,,,0.01,weatherlink.com 1.10,2013-11-27 03:48:00,
2013-11-26 23:03:00,29.4,20.0,30.14,North,7,1.0,4.0,69,0.00,,,0.01,weatherlink.com 1.10,2013-11-27 04:03:00,
2013-11-26 23:18:00,28.1,21.0,30.15,East,82,0.0,3.0,75,0.00,,,0.01,weatherlink.com 1.10,2013-11-27 04:18:00,
2013-11-26 23:33:00,27.2,22.0,30.15,NNE,18,0.0,2.0,79,0.00,,,0.01,weatherlink.com 1.10,2013-11-27 04:33:00,
2013-11-26 23:48:00,26.7,22.0,30.14,SW,229,0.0,0.0,81,0.00,,,0.01,weatherlink.com 1.10,2013-11-27 04:48:00,